Location: Carrizalito
(10.3833°N, 67.0217°W)
Time: 23:08:03
(UTC+00:00)

Meteor 1-11 Rocket - Pass Details

Date: 05 July 2022
Orbit: 830 x 917 km, 81.2° (Epoch: 07 August)

Event Time Altitude Azimuth Distance (km) Brightness Sun altitude
Exits shadow 07:19:59 14° 119° (ESE) 2,342 6.1 -37.3°
Maximum altitude 07:22:22 17° 92° (E) 2,136 6.2 -36.9°
Drops below altitude 10° 07:26:03 10° 53° (NE) 2,598 7.0 -36.1°
Sets 07:29:23 0° 34° (NE) 3,532 7.8 -35.5°
